User: anonymous   Login
Location: Unspecified
(0.0000°N, 0.0000°E)
Time: 21:16:28
(UTC+00:00)
Language:

Kitsat-3 - Orbit

View from above orbital plane
View from above orbital plane
View from above satellite
View from above satellite

Ground track
Ground track

The orbit data is extracted from the following two-line orbital elements,

1 25756U 99029A   18267.74432762 -.00000009 +00000-0 +89421-5 0  9992
2 25756 098.4223 194.6108 0012543 254.6326 105.3484 14.53727514024782
Epoch (UTC): 24 September 2018 17:51:49
Eccentricity: 0.0012543
inclination: 98.4223°
perigee height: 704 km
apogee height: 722 km
right ascension of ascending node: 194.6108°
argument of perigee: 254.6326°
revolutions per day: 14.53727514
mean anomaly at epoch: 105.3484°
orbit number at epoch: 2478

The dashed part of the orbit path shows where the satellite is in the earth's shadow,  

DLR